Beaufort, NC

9:25 AM EST on February 23, 2017 (GMT -0500)
Piney Island

Weather History for KNBT - January, 2013

Change the Weather History Date:

Tuesday, January 29, 2013

  Actual Average (KMRH) Record (KMRH)
Temperature  
Mean Temperature 62 °F -  
Max Temperature 73 °F 55 °F 72 °F (1974)
Min Temperature 51 °F 34 °F 16 °F (1971)
Degree Days  
Heating Degree Days 3    
Growing Degree Days 12 (Base 50)    
Moisture  
Dew Point 55 °F    
Average Humidity 84    
Maximum Humidity 100    
Minimum Humidity 55    
Precipitation  
Precipitation 0.01 in - - ()
Sea Level Pressure  
Sea Level Pressure 30.20 in    
Wind  
Wind Speed 8 mph (WSW)    
Max Wind Speed 16 mph    
Max Gust Speed 23 mph    
Averages and records for this station are not official NWS values.
T = Trace of Precipitation, MM = Missing Value Source: NWS Daily Summary

Daily Weather History Graph

Daily Weather History Graph

Search for Another Location

Airport or City:

Trip Planner

Search our weather history database for the weather conditions in past years. The results will help you decide how hot, cold, wet, or windy it might be!

Date:

Astronomy

Jan. 29, 2013 Rise Set
Actual Time 7:06 AM EST 5:31 PM EST
Civil Twilight 6:39 AM EST 5:58 PM EST
Nautical Twilight 6:09 AM EST 6:28 PM EST
Astronomical Twilight 5:39 AM EST 6:58 PM EST
Moon 8:16 PM EST (1/29) 8:10 AM EST (1/29)
Length of Visible Light 11h 18m
Length of Day
10h 25m
Waning Gibbous, 94% of the Moon is Illuminated
Jan 29
Waning Gibbous
Feb 3
Last Quarter
Feb 10
New
Feb 17
First Quarter
Feb 25
Full

Hourly Weather History & Observations

Time (EST) Temp. Dew Point Humidity Pressure Visibility Wind Dir Wind Speed Gust Speed Precip Events Conditions
12:56 AM 57.9 °F 55.9 °F 93% 30.25 in - SSW 8.1 mph - N/A   Clear
1:56 AM 55.9 °F 55.0 °F 97% 30.24 in - SW 4.6 mph - N/A   Partly Cloudy
2:05 AM 53.6 °F 53.6 °F 100% 30.22 in - West 4.6 mph - N/A   Scattered Clouds
2:13 AM 51.8 °F 51.8 °F 100% 30.22 in - WSW 5.8 mph - N/A   Mostly Cloudy
2:56 AM 53.1 °F 52.0 °F 96% 30.23 in - West 8.1 mph - 0.01 in   Overcast
3:34 AM 53.6 °F 53.6 °F 100% 30.21 in - WSW 6.9 mph - N/A   Mostly Cloudy
3:56 AM 55.0 °F 53.1 °F 93% 30.22 in - WSW 6.9 mph - N/A   Clear
4:56 AM 54.0 °F 53.1 °F 97% 30.22 in - West 8.1 mph - N/A   Clear
5:56 AM 55.0 °F 52.0 °F 89% 30.22 in - WSW 8.1 mph - N/A   Clear
6:56 AM 53.1 °F 51.1 °F 93% 30.23 in - WSW 5.8 mph - N/A   Clear
7:56 AM 55.0 °F 51.1 °F 86% 30.24 in - West 5.8 mph - N/A   Clear
8:56 AM 57.0 °F 52.0 °F 83% 30.24 in - West 8.1 mph - N/A   Clear
9:56 AM 61.0 °F 53.1 °F 75% 30.24 in - West 16.1 mph 23.0 mph N/A   Clear
10:56 AM 64.9 °F 54.0 °F 68% 30.24 in - West 13.8 mph 19.6 mph N/A   Clear
11:56 AM 69.1 °F 55.9 °F 63% 30.20 in - West 16.1 mph - N/A   Clear
12:56 PM 71.1 °F 57.0 °F 61% 30.17 in - West 16.1 mph - N/A   Clear
1:56 PM 73.0 °F 57.0 °F 57% 30.15 in - West 16.1 mph 20.7 mph N/A   Clear
2:56 PM 73.9 °F 57.0 °F 55% 30.14 in - West 10.4 mph - N/A   Clear
3:56 PM 71.1 °F 59.0 °F 66% 30.16 in - South 10.4 mph - N/A   Clear
4:56 PM 68.0 °F 57.9 °F 70% 30.15 in - SSW 10.4 mph - N/A   Clear
5:56 PM 64.0 °F 57.9 °F 80% 30.17 in - SSW 8.1 mph - N/A   Clear
6:56 PM 59.0 °F 55.9 °F 90% 30.17 in - South 4.6 mph - N/A   Clear
7:56 PM 57.9 °F 55.0 °F 90% 30.16 in - South 6.9 mph - N/A   Clear
9:56 PM 60.1 °F 57.9 °F 93% 30.17 in - SSW 8.1 mph - N/A   Clear
10:56 PM 61.0 °F 59.0 °F 93% 30.17 in - SSW 10.4 mph - N/A   Clear
11:56 PM 60.1 °F 59.0 °F 96% 30.17 in - SSW 6.9 mph - N/A   Clear